| time (UTC) | temp F | wind direction | speed MPH | gust MPH | rain 1hr in | rain 24hr in | rain mn in | humidity % | barometer mb |
| 20260906163019 | 58 | 69 | 2.0 | 6.0 | 0.01 | 0.04 | 0.01 | 90 | 1018.7 |
| 20260906161535 | 57 | 19 | 1.0 | 5.0 | 0.01 | 0.04 | 0.01 | 90 | 1018.6 |
| 20260906160017 | 56 | 344 | 2.0 | 4.0 | 0.01 | 0.04 | 0.01 | 91 | 1018.6 |
| 20260906154514 | 55 | 324 | 2.0 | 8.0 | 0.01 | 0.04 | 0.01 | 89 | 1019.0 |
| 20260906153015 | 55 | 314 | 4.0 | 12.0 | 0.00 | 0.03 | 0.00 | 87 | 1019.2 |
| 20260906151518 | 55 | 315 | 5.0 | 15.0 | 0.00 | 0.03 | 0.00 | 87 | 1019.3 |
| 20260906150013 | 55 | 296 | 8.0 | 15.0 | 0.00 | 0.03 | 0.00 | 87 | 1019.2 |
| 20260906144514 | 55 | 294 | 10.0 | 19.0 | 0.00 | 0.03 | 0.00 | 84 | 1019.6 |
| 20260906143008 | 59 | 290 | 3.0 | 9.0 | 0.00 | 0.03 | 0.00 | 85 | 1019.6 |
| 20260906141510 | 58 | 32 | 7.0 | 11.0 | 0.00 | 0.03 | 0.00 | 86 | 1019.0 |
| 20260906140010 | 58 | 15 | 7.0 | 10.0 | 0.00 | 0.03 | 0.00 | 85 | 1019.2 |
| 20260906134505 | 58 | 291 | 3.0 | 8.0 | 0.00 | 0.06 | 0.00 | 85 | 1019.1 |
| 20260906133007 | 58 | 20 | 4.0 | 11.0 | 0.00 | 0.06 | 0.00 | 86 | 1018.7 |
| 20260906131701 | 57 | 59 | 6.0 | 11.0 | 0.00 | 0.06 | 0.00 | 86 | 1018.7 |
| 20260906124555 | 57 | 11 | 9.0 | 13.0 | 0.00 | 0.06 | 0.00 | 87 | 1019.1 |
| 20260906123102 | 57 | 37 | 10.0 | 15.0 | 0.00 | 0.06 | 0.00 | 87 | 1018.8 |
| 20260906121552 | 56 | 5 | 9.0 | 15.0 | 0.00 | 0.06 | 0.00 | 87 | 1018.9 |
| 20260906120053 | 56 | 360 | 8.0 | 12.0 | 0.00 | 0.06 | 0.00 | 87 | 1019.1 |
| 20260906114552 | 56 | 10 | 9.0 | 14.0 | 0.00 | 0.06 | 0.00 | 87 | 1019.3 |
| 20260906113049 | 56 | 355 | 9.0 | 16.0 | 0.00 | 0.06 | 0.00 | 86 | 1019.1 |
| 20260906111549 | 56 | 360 | 10.0 | 15.0 | 0.00 | 0.06 | 0.00 | 85 | 1019.2 |
| 20260906110046 | 56 | 341 | 9.0 | 16.0 | 0.00 | 0.06 | 0.00 | 84 | 1019.1 |
| 20260906104546 | 57 | 10 | 12.0 | 16.0 | 0.00 | 0.06 | 0.00 | 84 | 1019.1 |
| 20260906103048 | 57 | 342 | 9.0 | 13.0 | 0.00 | 0.06 | 0.00 | 84 | 1019.3 |
| 20260906101546 | 57 | 360 | 8.0 | 14.0 | 0.00 | 0.06 | 0.00 | 84 | 1019.4 |
| 20260906100043 | 57 | 340 | 7.0 | 14.0 | 0.00 | 0.06 | 0.00 | 85 | 1019.4 |
| 20260906094550 | 57 | 355 | 12.0 | 19.0 | 0.00 | 0.06 | 0.00 | 85 | 1019.3 |
| 20260906093038 | 57 | 337 | 9.0 | 17.0 | 0.00 | 0.06 | 0.00 | 84 | 1019.5 |
| 20260906091538 | 57 | 315 | 5.0 | 12.0 | 0.00 | 0.06 | 0.00 | 83 | 1019.6 |
| 20260906090048 | 58 | 11 | 10.0 | 19.0 | 0.00 | 0.06 | 0.00 | 83 | 1019.8 |
| 20260906084536 | 56 | 276 | 12.0 | 17.0 | 0.00 | 0.06 | 0.00 | 86 | 1020.1 |
| 20260906083037 | 57 | 343 | 7.0 | 16.0 | 0.00 | 0.06 | 0.00 | 84 | 1020.1 |
| 20260906081532 | 57 | 5 | 7.0 | 14.0 | 0.00 | 0.06 | 0.00 | 84 | 1019.9 |
| 20260906080038 | 57 | 355 | 8.0 | 11.0 | 0.00 | 0.06 | 0.00 | 84 | 1019.8 |
| 20260906074532 | 57 | 5 | 9.0 | 14.0 | 0.00 | 0.06 | 0.00 | 84 | 1019.8 |
| 20260906073027 | 57 | 341 | 6.0 | 10.0 | 0.00 | 0.06 | 0.00 | 84 | 1019.9 |
| 20260906071528 | 58 | 360 | 11.0 | 18.0 | 0.00 | 0.06 | 0.00 | 83 | 1019.9 |
| 20260906070024 | 58 | 350 | 11.0 | 14.0 | 0.00 | 0.06 | 0.00 | 83 | 1020.2 |
| 20260906064522 | 58 | 331 | 8.0 | 13.0 | 0.00 | 0.06 | 0.00 | 84 | 1020.7 |
| 20260906063020 | 58 | 360 | 8.0 | 16.0 | 0.00 | 0.06 | 0.00 | 84 | 1020.6 |
| 20260906061517 | 57 | 348 | 11.0 | 17.0 | 0.00 | 0.06 | 0.00 | 84 | 1020.4 |
| 20260906060020 | 57 | 342 | 12.0 | 16.0 | 0.00 | 0.06 | 0.00 | 84 | 1020.5 |
| 20260906054513 | 56 | 355 | 8.0 | 15.0 | 0.01 | 0.06 | 0.06 | 84 | 1020.6 |
| 20260906053013 | 56 | 346 | 12.0 | 17.0 | 0.01 | 0.06 | 0.06 | 84 | 1020.4 |
| 20260906051515 | 56 | 360 | 11.0 | 17.0 | 0.01 | 0.06 | 0.06 | 82 | 1020.4 |
| 20260906050011 | 56 | 360 | 12.0 | 19.0 | 0.01 | 0.06 | 0.06 | 82 | 1020.2 |
| 20260906044513 | 57 | 360 | 10.0 | 17.0 | 0.00 | 0.05 | 0.05 | 82 | 1020.6 |
| 20260906043021 | 57 | 5 | 14.0 | 21.0 | 0.00 | 0.05 | 0.05 | 83 | 1020.0 |
| 20260906041508 | 57 | 355 | 12.0 | 21.0 | 0.02 | 0.05 | 0.05 | 83 | 1019.6 |
| 20260906040008 | 57 | 360 | 13.0 | 18.0 | 0.02 | 0.05 | 0.05 | 82 | 1019.8 |
| 20260906034507 | 58 | 360 | 14.0 | 19.0 | 0.02 | 0.05 | 0.05 | 81 | 1020.1 |
| 20260906033006 | 59 | 355 | 6.0 | 16.0 | 0.01 | 0.04 | 0.04 | 76 | 1020.7 |
| 20260906031505 | 60 | 309 | 4.0 | 17.0 | 0.00 | 0.03 | 0.03 | 68 | 1021.3 |
| 20260906030004 | 60 | 341 | 16.0 | 27.0 | 0.00 | 0.03 | 0.03 | 67 | 1019.3 |
| 20260906024502 | 60 | 10 | 17.0 | 22.0 | 0.00 | 0.03 | 0.03 | 67 | 1019.0 |
| 20260906023003 | 60 | 360 | 15.0 | 24.0 | 0.00 | 0.03 | 0.03 | 67 | 1018.7 |
| 20260906021603 | 61 | 10 | 15.0 | 23.0 | 0.00 | 0.03 | 0.03 | 66 | 1018.7 |
| 20260906020059 | 62 | 9 | 12.0 | 19.0 | 0.00 | 0.03 | 0.03 | 64 | 1018.8 |
| 20260906014559 | 63 | 15 | 13.0 | 18.0 | 0.00 | 0.03 | 0.03 | 62 | 1018.7 |
| 20260906013059 | 64 | 9 | 11.0 | 16.0 | 0.00 | 0.03 | 0.03 | 60 | 1018.6 |
| 20260906011559 | 65 | 5 | 11.0 | 16.0 | 0.00 | 0.03 | 0.03 | 58 | 1018.5 |
| 20260906010139 | 66 | 360 | 11.0 | 17.0 | 0.00 | 0.03 | 0.03 | 57 | 1018.6 |
| 20260906004614 | 66 | 19 | 13.0 | 19.0 | 0.00 | 0.03 | 0.03 | 56 | 1018.7 |
| 20260906003056 | 67 | 5 | 13.0 | 19.0 | 0.00 | 0.03 | 0.03 | 54 | 1018.8 |
| 20260906001603 | 69 | 20 | 13.0 | 21.0 | 0.00 | 0.03 | 0.03 | 53 | 1018.7 |
| 20260906000056 | 70 | 37 | 12.0 | 19.0 | 0.00 | 0.03 | 0.03 | 51 | 1018.7 |
| 20260905234555 | 70 | 26 | 11.0 | 16.0 | 0.00 | 0.03 | 0.03 | 50 | 1019.0 |
| 20260905233055 | 71 | 5 | 9.0 | 14.0 | 0.00 | 0.03 | 0.03 | 48 | 1018.9 |
| 20260905231556 | 71 | 32 | 5.0 | 12.0 | 0.00 | 0.03 | 0.03 | 48 | 1018.9 |
| 20260905230053 | 73 | 47 | 10.0 | 14.0 | 0.00 | 0.03 | 0.03 | 46 | 1018.8 |
| 20260905224552 | 72 | 5 | 4.0 | 12.0 | 0.00 | 0.03 | 0.03 | 45 | 1018.7 |
| 20260905223055 | 72 | 68 | 5.0 | 12.0 | 0.00 | 0.03 | 0.03 | 45 | 1018.7 |
| 20260905221554 | 73 | 9 | 4.0 | 9.0 | 0.00 | 0.03 | 0.03 | 41 | 1018.9 |
| 20260905220049 | 73 | 286 | 4.0 | 9.0 | 0.00 | 0.03 | 0.03 | 40 | 1019.0 |
| 20260905214549 | 72 | 253 | 1.0 | 5.0 | 0.00 | 0.03 | 0.03 | 41 | 1019.0 |
| 20260905213048 | 72 | 298 | 2.0 | 8.0 | 0.00 | 0.03 | 0.03 | 40 | 1019.1 |
| 20260905211547 | 72 | 319 | 3.0 | 7.0 | 0.00 | 0.03 | 0.03 | 40 | 1019.1 |
| 20260905210056 | 71 | 355 | 1.0 | 9.0 | 0.00 | 0.03 | 0.03 | 41 | 1019.2 |
| 20260905204545 | 71 | 344 | 9.0 | 11.0 | 0.00 | 0.03 | 0.03 | 41 | 1019.3 |
| 20260905203040 | 71 | 242 | 4.0 | 10.0 | 0.00 | 0.03 | 0.03 | 42 | 1019.3 |
| 20260905201540 | 71 | 5 | 6.0 | 10.0 | 0.00 | 0.03 | 0.03 | 43 | 1019.4 |
| 20260905200147 | 70 | 324 | 3.0 | 9.0 | 0.00 | 0.03 | 0.03 | 44 | 1019.4 |
| 20260905194536 | 70 | 329 | 4.0 | 8.0 | 0.00 | 0.03 | 0.03 | 43 | 1019.5 |
| 20260905193040 | 69 | 233 | 3.0 | 11.0 | 0.00 | 0.03 | 0.03 | 46 | 1019.6 |
| 20260905191534 | 70 | 291 | 3.0 | 9.0 | 0.00 | 0.03 | 0.03 | 46 | 1019.7 |
| 20260905190032 | 69 | 294 | 2.0 | 8.0 | 0.00 | 0.03 | 0.03 | 46 | 1019.9 |
| 20260905184535 | 68 | 264 | 3.0 | 10.0 | 0.00 | 0.03 | 0.03 | 48 | 1020.0 |
| 20260905183036 | 68 | 310 | 3.0 | 9.0 | 0.00 | 0.03 | 0.03 | 49 | 1020.2 |
| 20260905181524 | 66 | 296 | 3.0 | 6.0 | 0.00 | 0.03 | 0.03 | 51 | 1020.2 |
| 20260905180022 | 65 | 320 | 3.0 | 8.0 | 0.00 | 0.03 | 0.03 | 55 | 1020.3 |
| 20260905174522 | 65 | 288 | 3.0 | 9.0 | 0.00 | 0.03 | 0.03 | 55 | 1020.3 |
| 20260905173019 | 64 | 284 | 3.0 | 10.0 | 0.00 | 0.03 | 0.03 | 56 | 1020.4 |
| 20260905171516 | 63 | 301 | 3.0 | 10.0 | 0.00 | 0.03 | 0.03 | 58 | 1020.2 |
| 20260905170013 | 63 | 9 | 2.0 | 8.0 | 0.00 | 0.03 | 0.03 | 62 | 1020.3 |
| 20260905164512 | 63 | 285 | 2.0 | 6.0 | 0.00 | 0.03 | 0.03 | 67 | 1020.5 |